Vorticity
10 8 8 9 11 12 12 13 12 11 11 9 10 11 9 9 8 8 9 7 9 15 18 22 28 27 14 4 12 17 10 7 12 18 19 14 9 10 13 11 8 7 7 6 6 7 9 11 12 13 13 13 13 14 14 12 9 8 11 13 18 28 37 37 27 25 42 52 43 35 26 7 -3 -0 -4 -8 -7 -7 -6 -4 -4 -4 1 6 8
18 18 16 13 12 12 13 14 13 12 12 11 11 11 10 9 8 9 10 8 10 15 17 21 27 21 10 12 17 14 10 8 9 18 21 14 10 10 13 12 9 7 7 6 6 6 8 10 10 12 14 13 12 13 14 13 10 8 8 10 13 20 29 37 34 22 28 48 49 44 41 25 8 4 -1 -6 -5 -6 -7 -6 -7 -6 -3 0 4
16 20 22 21 17 15 14 14 14 13 12 11 11 10 10 10 10 11 10 9 10 14 16 20 26 21 10 11 13 8 10 10 8 16 21 14 10 10 11 12 10 8 6 6 7 6 7 10 9 10 14 13 11 13 14 14 12 9 8 8 9 14 21 29 37 29 20 34 48 47 46 40 26 13 2 -1 -2 -6 -5 -4 -9 -10 -5 -3 -2
18 19 21 24 23 19 16 14 14 14 12 11 11 11 11 9 11 12 10 9 9 13 16 16 25 27 13 5 8 8 10 10 7 15 21 15 10 9 11 13 11 8 6 6 7 7 7 9 9 10 12 12 12 14 14 13 13 11 9 10 8 10 16 22 31 35 24 22 37 47 48 45 41 31 14 3 -1 -4 -3 -3 -8 -11 -10 -7 -5
25 24 23 27 28 24 19 15 15 14 13 12 12 11 10 10 11 11 9 9 8 12 17 15 22 27 15 11 13 7 9 11 6 13 21 18 11 8 10 14 13 7 6 7 7 6 8 10 9 10 11 10 12 15 15 13 13 12 9 10 10 9 14 18 23 32 31 21 23 38 46 44 45 45 33 16 5 0 0 -1 -4 -5 -8 -9 -8
30 30 29 32 34 30 23 18 16 15 14 13 12 11 10 10 11 10 9 9 7 13 17 15 22 22 9 12 15 5 9 13 5 10 21 20 14 10 11 14 13 8 6 7 7 5 8 12 10 8 10 11 12 14 16 13 10 11 10 8 9 10 12 17 20 24 30 27 20 27 40 43 42 46 45 34 19 8 3 0 -2 -3 -4 -5 -6
40 42 40 40 41 38 28 20 17 16 15 14 12 12 10 9 11 9 8 8 7 15 19 13 21 23 9 9 14 8 12 13 5 9 19 19 14 11 12 15 12 9 7 7 7 6 9 12 10 9 10 11 12 14 17 16 10 8 10 8 8 10 11 16 21 20 23 26 22 23 33 39 38 42 47 44 36 26 14 5 3 1 -2 -2 -1
46 49 49 48 49 46 33 23 18 16 16 16 13 12 11 10 11 8 8 9 7 16 25 16 14 16 7 8 15 13 13 12 5 8 17 19 15 10 13 16 12 9 8 7 6 7 10 11 8 9 11 11 13 14 16 18 13 6 7 8 8 9 11 15 20 21 19 21 21 21 28 34 35 37 43 45 42 39 30 18 15 12 4 1 1
46 48 49 52 53 47 34 23 20 18 17 17 14 13 12 10 11 8 7 10 7 15 29 20 9 7 2 6 15 14 13 11 6 8 16 19 15 11 12 15 12 9 8 7 7 8 10 11 8 9 12 13 14 15 16 17 14 7 5 7 7 8 11 15 20 22 19 17 18 19 23 30 33 33 38 42 41 42 39 28 24 22 13 7 5
45 47 48 52 51 42 30 24 22 19 18 18 14 13 12 9 10 9 8 9 7 16 29 20 8 7 4 6 16 16 12 11 6 7 16 20 15 11 13 14 12 9 8 6 7 9 10 9 8 10 12 15 17 17 17 17 14 8 4 5 7 8 9 15 21 23 21 17 16 18 20 24 30 31 33 36 37 40 42 36 30 30 23 14 11
41 46 47 49 45 35 27 25 24 21 20 19 15 13 12 10 10 9 8 9 8 17 28 20 9 9 7 10 20 18 12 11 6 6 15 20 14 11 13 14 11 9 8 7 7 10 10 7 8 12 13 16 19 19 18 18 14 9 5 4 6 7 8 13 20 23 22 17 15 17 19 21 26 30 31 32 31 33 38 40 36 34 31 24 17
36 41 40 37 34 29 28 26 23 21 21 19 16 14 12 10 11 9 7 10 11 17 24 19 10 10 11 14 19 16 11 10 6 5 15 20 15 11 13 13 12 9 8 7 8 9 9 7 9 13 14 17 20 19 19 19 15 9 5 4 5 7 7 10 18 23 22 18 16 17 17 19 23 28 32 33 31 28 30 37 37 32 32 31 23
28 33 30 27 28 30 31 28 22 20 21 19 16 15 12 11 11 10 8 10 13 18 21 16 12 13 12 12 15 13 12 10 5 5 15 21 15 11 13 13 11 10 8 7 8 9 7 8 10 13 16 18 20 19 19 20 16 10 5 3 4 6 6 8 14 22 24 18 15 16 16 17 19 26 32 34 34 29 24 28 36 35 34 34 30
21 26 27 23 26 32 31 27 22 19 20 19 16 14 12 13 12 9 10 12 13 18 19 12 14 18 14 11 15 15 12 9 6 7 15 20 15 10 13 13 10 9 8 7 8 8 6 7 11 15 18 19 19 18 20 20 17 11 6 4 4 5 6 7 11 19 24 20 15 15 16 16 16 20 28 35 37 35 27 23 29 36 38 37 34
18 23 25 21 23 30 31 25 21 20 20 18 16 15 13 13 13 9 10 13 15 18 16 8 12 21 19 15 16 15 11 9 6 8 16 19 14 10 13 13 10 9 8 7 8 8 6 6 11 17 19 19 19 19 20 20 17 12 8 5 4 4 4 6 9 15 22 22 17 14 14 16 16 16 22 32 36 36 32 27 24 25 31 35 34
17 19 21 18 18 25 29 26 21 20 20 16 14 16 15 13 12 10 12 16 17 17 14 6 10 21 21 17 17 14 11 10 5 8 18 19 12 11 13 12 10 9 8 8 8 7 5 6 11 19 21 19 20 21 20 20 17 12 9 6 5 4 3 4 6 10 19 23 19 14 13 15 16 16 19 26 31 32 30 28 25 21 22 26 29
19 19 20 18 16 19 25 26 23 20 19 17 15 16 16 14 12 10 13 19 18 17 13 6 10 22 21 17 17 15 11 9 6 9 19 19 11 11 13 12 11 9 7 8 9 6 5 7 12 21 23 19 19 21 20 19 17 13 10 7 5 4 3 4 5 7 13 21 21 16 13 14 16 16 19 22 26 28 28 28 26 23 20 19 20
17 19 21 20 17 17 19 22 23 20 17 17 17 17 17 15 13 12 15 21 19 15 13 7 9 20 22 16 15 15 11 8 6 10 19 18 11 11 13 11 11 10 7 8 8 5 6 8 12 19 21 18 18 20 20 19 16 13 11 8 6 5 4 3 4 5 8 16 22 20 14 13 15 15 17 20 22 23 25 27 26 24 23 19 17
16 14 18 20 19 19 19 18 18 18 18 17 16 18 17 15 16 16 17 21 20 16 14 9 9 17 21 17 14 13 11 8 6 12 20 17 10 10 13 12 11 9 7 7 7 6 7 9 12 16 19 18 17 19 20 18 16 13 11 10 8 6 5 4 3 5 7 10 17 22 18 13 14 15 15 16 19 21 21 22 23 24 25 22 18
20 15 13 16 18 19 22 23 18 13 14 16 17 17 16 16 20 21 19 19 20 20 16 9 8 15 20 18 14 11 10 8 6 13 20 16 10 10 12 13 12 9 7 6 7 7 8 9 12 15 17 17 17 19 20 18 16 14 12 13 12 8 6 5 3 3 6 8 11 19 22 17 13 14 14 14 15 18 20 20 20 22 23 23 22
23 21 16 17 19 18 20 28 31 23 16 15 16 17 18 20 22 21 19 19 19 20 16 9 10 17 20 18 14 11 10 8 7 14 20 15 10 11 13 14 12 8 7 7 6 8 9 9 11 14 16 17 18 21 22 19 16 15 13 12 14 11 7 6 5 3 4 7 8 12 19 22 17 13 13 13 13 14 16 17 17 18 19 19 20
21 23 19 18 23 24 19 22 31 34 27 20 18 18 20 23 22 18 16 17 18 20 15 9 13 20 20 17 13 10 10 8 7 15 20 14 10 12 14 14 11 8 7 7 6 8 8 9 11 14 16 17 17 17 21 21 18 16 14 12 13 13 10 8 6 3 3 6 8 9 13 20 21 17 14 12 11 11 11 13 15 15 16 16 16
19 24 21 15 21 31 27 20 25 33 32 25 23 24 24 22 19 16 15 14 17 19 14 11 18 22 19 15 13 10 10 7 7 15 19 14 10 12 14 13 10 8 7 7 7 8 9 9 11 13 15 17 18 16 18 20 19 16 14 13 11 12 13 11 7 5 3 4 8 9 10 15 21 21 17 12 11 10 10 11 12 13 15 16 16
16 24 24 14 16 31 35 25 23 29 28 24 24 26 24 19 15 14 15 15 17 17 14 16 22 22 17 15 13 11 10 7 8 16 19 13 10 12 13 13 10 8 7 7 7 8 9 9 11 13 15 16 18 18 17 16 16 15 14 14 12 10 12 12 10 7 5 5 7 9 8 10 16 21 20 15 12 12 12 11 10 11 12 13 13
11 21 27 17 12 26 37 27 17 19 19 19 22 23 19 16 13 12 14 15 14 13 15 21 23 19 15 14 12 12 10 7 9 17 18 13 11 12 12 12 11 9 8 8 7 7 8 9 10 12 15 17 17 18 17 14 13 13 15 17 15 12 11 11 11 10 6 5 7 9 8 8 10 15 21 21 16 13 12 12 10 9 9 10 10
6 14 26 23 10 14 26 23 13 12 15 18 21 23 21 18 14 12 12 11 10 12 18 24 24 19 15 14 13 12 10 7 11 18 18 12 11 12 12 12 12 10 8 7 7 7 7 7 9 12 16 18 19 18 17 16 12 11 14 18 18 15 13 11 12 12 8 5 7 8 8 8 9 10 16 23 23 18 14 12 12 11 10 9 9
5 7 20 27 17 7 11 15 12 11 15 19 21 23 23 21 16 13 11 8 9 16 23 25 23 19 15 13 13 11 8 8 14 19 17 12 11 11 12 13 12 11 9 8 7 7 7 8 10 14 16 17 17 15 14 13 11 9 12 16 18 17 15 13 13 13 10 6 6 9 8 7 9 11 13 17 21 22 19 16 13 12 12 11 10
7 4 10 21 24 13 5 9 14 13 12 18 23 21 17 16 15 13 10 7 9 19 25 25 21 18 14 12 12 10 8 9 16 19 15 11 11 12 11 12 13 11 10 9 8 7 8 8 9 12 13 13 13 13 13 12 10 9 9 12 15 16 14 13 14 15 13 7 5 8 9 6 6 10 12 13 15 17 20 21 19 15 13 13 12
12 7 4 11 22 21 9 5 15 21 17 17 25 24 13 9 14 15 11 7 9 17 25 25 20 15 14 13 11 8 8 11 16 18 15 10 10 11 11 12 13 12 10 9 9 8 7 8 9 11 12 13 14 15 16 15 13 11 10 10 13 14 13 12 12 15 16 11 6 6 10 8 5 6 9 11 11 12 14 17 19 19 18 16 15
17 12 6 5 13 22 18 7 9 20 22 20 25 26 15 8 13 18 14 11 11 16 22 24 20 16 15 13 10 8 8 12 17 18 14 10 9 10 11 11 12 12 11 9 8 8 8 9 10 11 11 12 13 14 15 17 16 14 12 11 12 13 13 11 11 13 16 14 9 7 8 9 7 5 7 9 10 10 11 12 12 15 18 18 17
20 17 12 6 5 13 20 15 8 10 17 22 26 26 16 7 10 17 18 17 18 21 24 24 21 18 15 12 10 9 8 12 19 18 13 9 9 9 10 12 11 12 11 9 8 8 9 9 10 10 11 12 13 13 14 15 15 14 12 11 11 12 13 11 10 12 15 16 13 9 8 8 8 6 7 8 8 9 11 12 12 13 13 13 13
21 19 16 12 7 6 11 18 16 10 10 18 27 28 18 7 6 12 14 12 12 18 24 26 22 18 15 11 8 8 9 13 18 18 12 9 9 10 10 11 12 11 11 9 8 8 8 8 8 9 10 11 12 13 14 14 14 14 12 12 12 13 13 12 10 11 15 17 15 11 8 8 8 7 7 7 7 9 11 12 14 16 16 15 13
21 23 19 15 12 7 5 11 19 17 10 11 22 29 23 10 5 7 9 8 7 11 19 26 26 20 15 11 8 8 10 14 18 18 13 8 8 10 10 10 11 11 10 9 8 8 8 8 8 9 9 10 11 12 13 13 14 14 13 13 13 14 14 12 11 12 14 17 17 15 11 9 8 6 6 6 7 10 12 13 14 15 16 17 17
21 24 24 18 14 12 7 5 12 19 16 10 14 24 26 17 8 6 5 5 8 11 14 21 26 23 15 10 8 8 10 14 18 18 14 9 8 9 10 10 11 11 10 9 9 8 7 8 9 9 9 10 10 11 12 12 14 14 14 13 13 14 14 13 12 12 13 15 16 16 13 10 8 6 5 6 8 10 11 11 11 12 13 14 15
23 24 26 23 17 14 12 6 6 14 20 16 11 15 22 21 14 9 6 3 4 8 13 18 23 23 16 10 9 9 11 14 19 19 14 10 9 8 9 10 11 12 11 10 9 8 8 8 8 9 9 10 11 11 12 12 13 14 15 14 13 13 13 13 12 12 12 14 15 16 13 11 9 7 6 6 6 8 9 9 8 8 10 11 12
24 24 27 26 21 17 15 11 6 7 15 20 15 11 15 19 17 12 11 9 6 8 13 17 19 20 17 12 9 9 10 13 18 19 16 11 9 9 9 10 11 12 12 11 10 9 9 9 8 9 9 9 10 10 11 12 13 13 14 14 13 13 12 12 12 11 12 13 14 14 13 11 8 7 6 6 6 6 7 8 7 6 6 7 8
22 23 25 27 25 21 17 14 10 6 8 16 20 15 12 15 16 13 12 13 14 13 14 16 17 16 16 14 9 7 9 12 15 18 18 14 11 9 10 10 11 12 12 11 10 9 8 8 8 8 8 9 9 10 10 11 12 13 14 14 14 13 12 12 12 11 11 13 14 14 13 11 9 7 6 6 6 6 6 7 8 8 8 7 7
21 21 22 25 26 24 19 16 14 10 6 8 16 20 17 14 15 14 12 12 13 14 14 16 18 17 15 13 9 6 7 10 14 17 18 16 13 11 10 10 11 12 12 11 11 9 8 8 8 8 8 8 8 8 9 10 10 12 13 14 14 14 13 12 12 11 11 11 13 15 14 12 9 8 7 6 6 6 5 6 7 8 9 10 9
21 20 21 22 24 25 23 18 15 13 9 6 8 16 21 18 14 13 13 13 14 13 12 14 18 19 16 13 10 7 7 9 13 16 17 16 14 12 11 10 10 11 12 12 12 11 9 9 8 8 8 8 8 8 8 9 9 10 11 13 14 15 15 13 12 11 10 10 11 13 15 14 12 9 7 6 6 6 5 5 5 5 7 9 10
22 21 20 21 22 23 23 21 17 15 13 9 6 8 16 20 19 15 12 13 15 16 14 14 16 17 16 14 11 9 7 9 11 14 16 16 15 13 12 10 10 10 11 12 13 12 11 10 9 9 8 8 8 8 8 8 9 9 10 10 12 13 14 15 14 12 11 10 10 10 12 14 14 13 10 8 7 6 5 5 4 4 5 7 9
22 22 22 21 22 22 23 21 19 16 14 12 10 6 7 14 20 21 17 13 13 15 16 15 15 15 14 14 12 9 7 7 9 12 14 15 14 14 13 12 10 10 11 12 12 13 12 11 10 9 9 8 8 8 8 9 9 9 9 9 10 11 12 13 15 14 13 12 11 10 10 11 13 14 14 12 10 8 6 6 5 4 4 5 8
21 22 23 23 22 22 22 21 19 17 15 13 12 9 6 6 12 19 21 18 13 12 14 15 15 14 13 13 11 9 8 7 7 10 12 14 14 14 14 13 12 11 11 11 12 13 13 13 11 10 9 9 9 8 8 8 9 9 9 9 9 10 11 11 12 14 15 15 14 12 11 11 11 13 15 16 15 12 9 7 6 6 5 4 5
21 22 24 25 24 23 22 21 19 18 16 14 12 11 9 6 5 10 17 19 17 15 14 14 14 14 14 13 11 10 9 8 7 8 11 12 13 14 13 12 12 11 11 10 11 12 12 13 12 11 11 10 10 9 9 9 9 9 9 9 9 9 10 10 11 12 13 15 15 15 14 13 12 12 14 17 19 18 15 12 9 8 7 6 6
20 22 24 26 27 25 23 22 20 18 16 15 13 12 11 9 6 6 10 15 18 18 16 15 13 13 14 15 14 12 10 9 8 7 8 10 12 13 13 13 12 11 11 10 10 11 12 13 12 12 12 11 11 10 9 9 9 9 9 9 9 9 9 9 9 10 11 12 13 15 15 15 15 14 14 15 17 20 20 19 15 12 10 9 8
21 23 25 26 27 27 25 23 21 19 17 15 13 12 12 11 8 6 7 10 14 16 16 16 15 13 13 14 14 14 12 10 8 7 7 8 10 12 13 13 12 11 11 11 11 11 12 12 12 12 11 11 11 11 10 10 9 9 9 9 8 9 9 9 8 9 9 10 11 12 13 14 14 15 15 15 15 16 18 20 20 18 16 14 12
23 25 26 26 27 27 26 24 22 21 20 17 13 11 11 12 10 8 6 7 10 13 14 14 15 15 14 13 13 13 13 11 9 8 8 8 10 11 12 12 12 11 11 11 11 11 11 11 12 11 10 10 10 11 11 11 11 10 10 9 9 9 9 9 9 9 9 9 9 9 10 11 11 12 13 14 14 14 15 16 17 18 18 17 16
25 25 26 27 27 27 27 26 23 21 21 20 17 13 11 11 12 11 8 6 7 11 12 13 13 13 13 13 13 12 12 11 10 9 9 9 10 10 11 11 11 11 11 11 11 11 11 11 12 12 11 11 10 10 10 11 11 11 10 11 10 10 9 9 9 9 9 9 9 9 9 9 10 10 10 11 11 12 13 13 13 14 15 15 15
24 24 24 25 26 27 27 27 25 23 21 21 21 19 15 12 11 12 11 9 7 8 10 11 12 11 11 12 12 11 11 11 11 10 10 10 10 10 10 10 11 11 12 12 11 12 11 11 12 12 12 11 11 11 11 10 10 10 11 11 11 11 11 10 10 10 9 9 8 8 8 9 9 9 9 10 10 10 11 12 12 13 14 14 14
22 23 24 24 25 25 26 26 26 25 23 21 20 21 20 19 16 14 12 11 9 8 8 9 11 11 11 11 12 12 11 11 10 10 10 10 10 10 10 10 10 11 11 11 11 11 11 11 12 12 12 11 11 11 11 10 10 10 11 11 11 11 12 12 11 11 11 11 10 9 9 9 9 8 9 9 9 10 10 10 11 11 12 13 14
22 23 23 23 23 24 24 24 24 25 24 23 21 19 19 21 22 22 19 15 12 11 9 8 9 10 11 11 11 11 11 11 10 10 10 10 10 10 10 9 9 10 10 11 11 10 11 11 12 12 11 11 11 10 10 10 10 10 10 10 11 11 11 11 12 11 11 12 11 11 11 10 9 9 9 9 9 9 9 9 9 10 10 11 12
22 22 22 22 23 23 23 23 23 23 23 24 24 21 18 17 19 23 26 24 20 16 13 11 10 10 11 11 11 10 10 10 10 10 10 10 10 10 9 9 9 9 9 10 10 10 10 11 11 11 11 11 11 11 10 10 9 9 9 9 9 10 10 10 11 11 12 11 11 11 12 12 11 11 11 10 10 10 10 10 9 9 9 9 10
Height
5453 5447 5442 5437 5433 5428 5424 5420 5417 5413 5410 5407 5404 5401 5398 5394 5391 5388 5384 5380 5376 5373 5370 5367 5365 5363 5362 5361 5359 5358 5357 5355 5354 5352 5352 5351 5351 5351 5350 5350 5350 5349 5349 5349 5348 5347 5347 5346 5345 5344 5344 5343 5343 5343 5343 5343 5344 5345 5346 5347 5347 5349 5351 5354 5359 5364 5366 5369 5374 5380 5387 5395 5404 5411 5416 5423 5431 5437 5443 5450 5456 5463 5470 5477 5484
5440 5433 5427 5422 5418 5414 5410 5407 5404 5401 5398 5395 5393 5390 5387 5384 5381 5378 5375 5371 5368 5364 5361 5359 5357 5355 5354 5353 5352 5351 5350 5348 5347 5346 5345 5344 5344 5344 5344 5343 5343 5343 5343 5342 5342 5341 5341 5340 5340 5339 5338 5338 5338 5337 5338 5338 5338 5339 5339 5340 5340 5341 5343 5346 5350 5355 5358 5360 5364 5369 5375 5383 5392 5398 5404 5411 5418 5425 5432 5439 5445 5452 5459 5467 5474
5425 5418 5411 5406 5402 5398 5395 5393 5390 5388 5385 5383 5381 5379 5376 5374 5370 5368 5365 5362 5359 5355 5353 5351 5349 5348 5347 5346 5345 5344 5343 5341 5340 5339 5338 5337 5337 5337 5337 5337 5337 5337 5336 5336 5336 5335 5335 5334 5333 5333 5333 5332 5332 5331 5332 5332 5333 5333 5333 5333 5334 5335 5336 5339 5343 5347 5350 5353 5355 5359 5364 5372 5379 5385 5392 5400 5406 5413 5421 5428 5434 5441 5448 5456 5463
5409 5401 5395 5390 5386 5382 5380 5378 5376 5374 5373 5371 5370 5368 5365 5363 5360 5357 5354 5352 5350 5347 5344 5343 5341 5340 5339 5338 5338 5337 5336 5334 5333 5332 5331 5331 5331 5330 5330 5330 5330 5330 5330 5330 5330 5329 5328 5328 5327 5326 5326 5326 5325 5325 5326 5326 5326 5327 5327 5327 5327 5328 5329 5332 5335 5338 5342 5346 5347 5349 5354 5361 5367 5373 5380 5388 5395 5402 5409 5416 5423 5430 5437 5444 5451
5392 5384 5378 5373 5370 5367 5364 5363 5362 5361 5360 5359 5358 5356 5354 5352 5350 5347 5345 5343 5340 5338 5336 5335 5333 5332 5331 5331 5330 5330 5329 5327 5326 5325 5324 5324 5324 5324 5324 5324 5324 5324 5324 5324 5324 5323 5322 5321 5321 5320 5320 5319 5319 5319 5319 5320 5320 5321 5321 5322 5322 5322 5323 5324 5327 5330 5334 5338 5340 5341 5343 5350 5356 5361 5368 5376 5383 5389 5396 5403 5411 5418 5425 5432 5439
5373 5366 5360 5356 5353 5351 5349 5348 5348 5348 5347 5347 5346 5345 5343 5341 5339 5337 5335 5333 5331 5329 5328 5326 5325 5324 5324 5323 5323 5322 5322 5321 5320 5319 5318 5317 5317 5317 5317 5317 5318 5318 5318 5318 5317 5317 5316 5315 5315 5314 5313 5312 5312 5313 5313 5314 5315 5315 5315 5316 5317 5317 5318 5318 5319 5322 5326 5329 5332 5333 5334 5339 5345 5350 5356 5364 5370 5377 5384 5391 5398 5405 5412 5419 5426
5355 5347 5341 5337 5336 5335 5334 5334 5334 5334 5334 5334 5334 5333 5332 5330 5329 5327 5325 5324 5322 5321 5319 5318 5317 5317 5316 5316 5315 5315 5315 5314 5313 5312 5311 5311 5311 5311 5311 5311 5311 5312 5312 5312 5311 5311 5310 5309 5308 5307 5306 5306 5306 5306 5307 5308 5309 5309 5310 5311 5311 5312 5312 5313 5313 5315 5318 5321 5324 5326 5327 5330 5334 5339 5345 5352 5358 5365 5372 5378 5386 5392 5398 5405 5412
5341 5332 5325 5320 5319 5319 5319 5320 5320 5321 5322 5322 5322 5322 5321 5320 5319 5317 5316 5315 5313 5312 5311 5311 5310 5309 5309 5308 5308 5308 5308 5307 5306 5306 5305 5305 5305 5305 5305 5305 5305 5305 5305 5306 5306 5305 5304 5304 5302 5301 5300 5300 5299 5300 5301 5302 5303 5304 5305 5306 5307 5307 5307 5307 5308 5309 5310 5313 5316 5318 5320 5323 5326 5329 5334 5339 5346 5354 5359 5364 5370 5376 5383 5391 5400
5328 5319 5312 5307 5305 5306 5306 5307 5307 5308 5309 5310 5311 5311 5310 5309 5309 5308 5307 5306 5305 5304 5303 5303 5303 5302 5301 5301 5301 5301 5301 5300 5300 5299 5298 5299 5299 5299 5299 5299 5299 5299 5299 5299 5299 5299 5299 5297 5296 5296 5294 5293 5293 5294 5295 5296 5297 5298 5300 5301 5302 5302 5302 5301 5302 5303 5304 5306 5309 5311 5313 5316 5319 5322 5324 5328 5336 5342 5345 5348 5354 5361 5371 5380 5388
5318 5309 5303 5298 5295 5295 5295 5296 5296 5297 5298 5299 5299 5300 5300 5299 5299 5298 5298 5297 5296 5295 5295 5295 5295 5294 5294 5294 5293 5294 5294 5293 5293 5293 5292 5292 5293 5293 5293 5293 5293 5293 5293 5293 5293 5293 5292 5291 5290 5290 5289 5288 5287 5288 5289 5290 5292 5293 5294 5295 5296 5297 5297 5297 5296 5297 5298 5300 5302 5304 5306 5309 5312 5315 5316 5319 5323 5328 5331 5336 5344 5351 5358 5366 5374
5311 5303 5296 5291 5288 5287 5287 5287 5287 5287 5288 5288 5289 5290 5290 5290 5290 5289 5289 5289 5288 5287 5287 5286 5286 5286 5286 5286 5286 5286 5287 5286 5286 5286 5286 5286 5286 5286 5287 5286 5287 5287 5287 5287 5287 5287 5286 5285 5284 5284 5283 5282 5282 5282 5283 5285 5287 5288 5289 5290 5291 5292 5292 5292 5292 5292 5293 5294 5295 5297 5299 5302 5304 5307 5310 5311 5312 5315 5321 5327 5333 5338 5343 5352 5362
5307 5299 5292 5287 5284 5281 5280 5280 5279 5279 5279 5280 5280 5281 5281 5281 5281 5281 5280 5280 5280 5279 5279 5279 5279 5279 5279 5279 5279 5279 5280 5279 5280 5280 5280 5280 5280 5280 5280 5281 5281 5281 5281 5282 5281 5281 5280 5279 5279 5278 5277 5276 5276 5277 5278 5279 5281 5282 5283 5284 5286 5286 5287 5287 5287 5287 5288 5288 5289 5290 5291 5293 5296 5298 5302 5303 5304 5307 5311 5316 5320 5325 5331 5341 5349
5305 5298 5291 5285 5281 5277 5275 5274 5273 5272 5272 5272 5272 5273 5273 5273 5273 5272 5272 5272 5272 5271 5271 5271 5271 5271 5272 5272 5272 5273 5272 5273 5273 5274 5274 5274 5274 5275 5275 5275 5275 5275 5276 5276 5276 5275 5274 5273 5273 5272 5271 5271 5271 5271 5272 5274 5276 5277 5278 5280 5281 5281 5282 5282 5282 5282 5283 5283 5283 5283 5284 5285 5287 5290 5292 5294 5296 5299 5303 5306 5311 5317 5323 5331 5338
5303 5295 5289 5283 5278 5274 5271 5269 5268 5267 5266 5266 5266 5266 5265 5265 5265 5265 5265 5264 5264 5264 5264 5264 5264 5264 5265 5265 5265 5266 5266 5266 5267 5268 5268 5268 5268 5269 5269 5269 5269 5270 5270 5270 5270 5269 5268 5268 5267 5267 5266 5265 5265 5265 5267 5269 5270 5272 5273 5275 5276 5277 5277 5277 5278 5277 5278 5278 5278 5278 5278 5279 5280 5281 5283 5286 5289 5293 5296 5300 5305 5311 5316 5322 5327
5300 5293 5287 5281 5276 5272 5268 5266 5264 5262 5261 5260 5260 5259 5258 5258 5258 5258 5257 5257 5257 5257 5257 5257 5257 5257 5258 5258 5259 5259 5259 5260 5261 5262 5262 5262 5262 5263 5263 5263 5263 5264 5264 5265 5264 5263 5263 5262 5262 5261 5261 5260 5259 5260 5261 5263 5265 5267 5268 5270 5271 5272 5273 5273 5273 5273 5273 5273 5274 5274 5274 5275 5274 5274 5276 5279 5282 5286 5289 5293 5298 5303 5308 5313 5318
5298 5291 5285 5279 5274 5269 5265 5262 5260 5258 5256 5255 5254 5253 5252 5251 5251 5251 5250 5250 5250 5250 5250 5251 5251 5251 5251 5252 5252 5253 5253 5254 5255 5256 5256 5256 5257 5257 5258 5258 5258 5258 5259 5259 5259 5258 5257 5256 5256 5256 5256 5255 5254 5255 5256 5258 5260 5262 5263 5265 5267 5268 5269 5269 5269 5269 5269 5269 5269 5270 5270 5270 5270 5270 5272 5274 5276 5279 5282 5286 5290 5295 5300 5305 5310
5295 5288 5282 5276 5271 5267 5263 5259 5256 5254 5252 5250 5249 5247 5246 5245 5245 5244 5244 5243 5243 5244 5244 5245 5245 5245 5245 5245 5246 5247 5247 5248 5250 5250 5250 5251 5251 5252 5252 5253 5253 5253 5253 5254 5253 5252 5252 5251 5250 5251 5251 5250 5250 5250 5251 5253 5255 5257 5259 5261 5262 5263 5265 5266 5266 5266 5265 5265 5265 5266 5266 5267 5267 5267 5269 5270 5272 5274 5277 5281 5285 5288 5292 5297 5302
5292 5285 5279 5273 5268 5263 5259 5256 5252 5249 5247 5245 5243 5242 5241 5240 5239 5238 5238 5237 5237 5237 5238 5238 5239 5239 5239 5240 5240 5241 5241 5243 5244 5244 5245 5245 5246 5246 5247 5247 5248 5248 5248 5248 5248 5247 5246 5246 5245 5245 5246 5246 5245 5246 5247 5248 5250 5252 5254 5256 5257 5258 5260 5262 5262 5262 5262 5262 5262 5262 5263 5263 5264 5264 5266 5267 5269 5271 5274 5276 5279 5282 5286 5291 5295
5287 5281 5275 5269 5264 5259 5255 5251 5248 5245 5242 5240 5238 5236 5235 5234 5233 5232 5232 5231 5231 5231 5232 5232 5233 5233 5233 5234 5235 5235 5236 5237 5238 5239 5239 5240 5240 5241 5242 5242 5243 5243 5243 5243 5243 5242 5242 5241 5240 5240 5241 5241 5241 5241 5242 5244 5245 5247 5249 5251 5253 5253 5255 5258 5259 5259 5259 5259 5259 5259 5259 5260 5261 5262 5263 5264 5266 5268 5270 5272 5274 5277 5282 5286 5288
5283 5276 5270 5265 5259 5254 5250 5246 5242 5239 5236 5234 5232 5231 5230 5228 5227 5227 5226 5225 5225 5225 5226 5227 5227 5228 5228 5228 5229 5229 5230 5232 5233 5234 5234 5234 5235 5236 5237 5238 5238 5238 5238 5238 5238 5238 5237 5236 5236 5235 5236 5236 5236 5237 5238 5239 5241 5242 5244 5247 5248 5248 5250 5253 5255 5255 5256 5256 5256 5256 5256 5257 5258 5259 5259 5261 5262 5265 5267 5269 5271 5274 5277 5280 5282
5279 5272 5266 5260 5254 5249 5244 5240 5236 5233 5230 5228 5227 5225 5224 5222 5222 5221 5220 5220 5220 5220 5221 5221 5222 5222 5223 5223 5224 5224 5225 5226 5228 5228 5228 5229 5230 5231 5232 5233 5233 5233 5233 5233 5233 5233 5232 5232 5231 5231 5231 5231 5231 5232 5233 5235 5236 5238 5241 5242 5242 5242 5245 5248 5250 5251 5252 5252 5252 5253 5253 5253 5254 5255 5256 5258 5259 5261 5263 5264 5267 5269 5273 5275 5278
5275 5268 5262 5256 5250 5244 5239 5234 5230 5227 5224 5222 5221 5219 5218 5217 5216 5216 5215 5215 5215 5215 5216 5216 5217 5217 5218 5218 5219 5219 5220 5221 5223 5223 5224 5224 5225 5226 5227 5228 5228 5228 5228 5228 5228 5228 5227 5227 5226 5226 5226 5226 5227 5228 5229 5230 5233 5235 5237 5237 5236 5237 5240 5244 5246 5247 5248 5248 5248 5249 5249 5250 5251 5252 5253 5254 5255 5256 5259 5261 5263 5266 5269 5272 5274
5272 5265 5258 5252 5246 5240 5234 5230 5226 5222 5219 5217 5216 5214 5213 5212 5212 5211 5211 5210 5210 5210 5211 5212 5212 5212 5213 5213 5214 5214 5215 5217 5218 5218 5219 5220 5221 5222 5222 5223 5223 5223 5223 5223 5223 5223 5223 5222 5222 5222 5222 5222 5222 5223 5225 5226 5229 5231 5232 5232 5232 5233 5236 5239 5241 5242 5244 5244 5245 5245 5246 5246 5247 5248 5249 5249 5251 5253 5255 5258 5260 5263 5266 5268 5270
5269 5262 5255 5248 5242 5236 5231 5227 5223 5219 5216 5214 5212 5210 5209 5208 5208 5207 5207 5206 5206 5206 5207 5207 5207 5208 5208 5209 5209 5210 5211 5212 5213 5214 5214 5215 5216 5217 5218 5218 5218 5218 5219 5219 5219 5219 5218 5218 5218 5217 5217 5218 5219 5219 5221 5222 5224 5226 5227 5227 5228 5229 5230 5233 5236 5238 5239 5241 5241 5241 5242 5242 5243 5244 5245 5246 5247 5250 5252 5255 5257 5259 5262 5264 5266
5266 5259 5252 5246 5240 5234 5229 5224 5221 5217 5214 5211 5209 5207 5205 5204 5204 5203 5203 5202 5203 5203 5203 5203 5203 5203 5203 5204 5205 5206 5207 5207 5208 5209 5210 5211 5211 5212 5213 5214 5214 5214 5215 5215 5214 5214 5214 5214 5213 5213 5214 5214 5215 5216 5217 5218 5220 5221 5222 5223 5224 5225 5226 5228 5230 5233 5235 5236 5237 5237 5238 5238 5239 5240 5241 5243 5245 5247 5249 5251 5253 5255 5257 5259 5261
5263 5256 5250 5244 5238 5232 5227 5223 5219 5216 5212 5209 5206 5204 5202 5201 5200 5200 5199 5199 5199 5199 5199 5198 5198 5199 5199 5200 5201 5201 5202 5203 5204 5204 5205 5206 5207 5207 5208 5209 5210 5210 5211 5210 5210 5210 5210 5209 5209 5209 5210 5210 5211 5212 5213 5214 5216 5217 5218 5219 5220 5221 5222 5223 5225 5228 5230 5232 5233 5233 5234 5234 5235 5236 5238 5240 5241 5243 5244 5246 5248 5250 5252 5254 5256
5259 5253 5247 5241 5236 5231 5226 5222 5218 5214 5210 5207 5204 5201 5199 5198 5197 5196 5196 5195 5195 5195 5194 5194 5194 5195 5195 5196 5196 5197 5198 5199 5199 5200 5200 5201 5202 5203 5204 5205 5206 5206 5206 5206 5206 5206 5206 5206 5205 5206 5206 5206 5207 5208 5209 5210 5211 5212 5213 5214 5216 5217 5218 5219 5221 5223 5225 5227 5228 5229 5230 5230 5232 5233 5235 5236 5237 5238 5240 5242 5244 5246 5248 5250 5251
5255 5249 5243 5237 5232 5228 5223 5219 5215 5211 5207 5204 5201 5198 5197 5195 5194 5193 5192 5192 5191 5191 5190 5190 5190 5191 5191 5192 5193 5194 5194 5195 5195 5195 5196 5196 5198 5199 5200 5200 5201 5202 5202 5202 5202 5202 5202 5202 5202 5202 5202 5202 5203 5203 5204 5205 5207 5208 5209 5211 5212 5213 5214 5215 5217 5219 5221 5222 5224 5225 5226 5227 5228 5230 5231 5232 5233 5234 5236 5238 5240 5241 5243 5245 5247
5250 5244 5239 5234 5229 5224 5220 5215 5211 5207 5204 5200 5198 5195 5193 5192 5190 5189 5189 5188 5188 5187 5186 5186 5186 5187 5187 5188 5189 5189 5190 5191 5191 5191 5191 5192 5193 5194 5195 5196 5196 5197 5198 5198 5198 5198 5198 5198 5198 5198 5198 5198 5199 5199 5200 5201 5202 5204 5205 5206 5208 5208 5209 5211 5212 5214 5216 5217 5219 5221 5222 5224 5225 5226 5228 5229 5230 5231 5232 5234 5236 5237 5239 5241 5242
5245 5239 5234 5229 5225 5220 5216 5212 5208 5204 5200 5197 5194 5192 5190 5188 5187 5186 5185 5184 5184 5183 5183 5182 5182 5183 5183 5184 5185 5185 5186 5186 5186 5186 5187 5188 5189 5190 5190 5191 5192 5193 5193 5194 5194 5194 5194 5194 5194 5194 5195 5195 5195 5195 5196 5197 5198 5199 5201 5202 5203 5204 5205 5206 5208 5209 5211 5213 5215 5216 5218 5220 5221 5223 5224 5225 5226 5227 5229 5230 5232 5233 5235 5237 5238
5239 5234 5229 5224 5220 5216 5212 5208 5204 5200 5197 5193 5190 5188 5186 5185 5184 5182 5181 5181 5180 5179 5179 5178 5178 5179 5179 5180 5180 5181 5182 5182 5182 5182 5183 5184 5185 5185 5186 5187 5188 5189 5189 5190 5190 5190 5190 5191 5191 5191 5191 5191 5191 5192 5192 5193 5194 5195 5196 5198 5199 5200 5201 5202 5203 5205 5206 5208 5210 5212 5214 5216 5218 5219 5220 5222 5223 5224 5225 5226 5228 5229 5231 5233 5233
5231 5227 5223 5219 5215 5211 5207 5203 5200 5196 5193 5190 5187 5184 5183 5182 5180 5179 5178 5177 5176 5176 5175 5174 5175 5175 5175 5176 5176 5177 5178 5178 5178 5179 5179 5180 5180 5181 5182 5183 5184 5184 5185 5185 5186 5186 5187 5187 5187 5187 5187 5187 5188 5188 5189 5189 5190 5191 5192 5193 5195 5196 5197 5198 5199 5201 5202 5204 5206 5208 5210 5212 5214 5215 5217 5218 5219 5220 5222 5223 5224 5225 5227 5228 5229
5224 5219 5216 5212 5209 5205 5201 5198 5195 5192 5189 5186 5183 5180 5179 5178 5176 5175 5174 5174 5173 5172 5171 5171 5171 5171 5171 5172 5172 5173 5173 5174 5174 5175 5175 5176 5176 5177 5177 5179 5180 5180 5180 5181 5182 5182 5183 5183 5183 5183 5183 5184 5184 5184 5185 5185 5186 5187 5188 5189 5190 5191 5192 5193 5195 5196 5198 5200 5202 5204 5206 5208 5210 5212 5213 5214 5216 5217 5218 5219 5220 5222 5223 5224 5225
5216 5211 5207 5205 5202 5199 5196 5193 5189 5186 5184 5181 5179 5176 5174 5173 5172 5171 5170 5169 5169 5168 5168 5167 5167 5167 5167 5168 5168 5169 5169 5169 5170 5170 5171 5171 5172 5172 5173 5175 5175 5176 5176 5177 5178 5178 5179 5179 5179 5180 5180 5180 5180 5181 5181 5182 5182 5183 5184 5185 5186 5187 5189 5190 5191 5192 5194 5196 5198 5200 5202 5204 5206 5207 5209 5210 5212 5213 5214 5216 5217 5218 5219 5220 5221
5209 5205 5200 5197 5194 5192 5189 5186 5184 5181 5179 5176 5174 5172 5170 5169 5168 5167 5166 5165 5164 5164 5163 5163 5163 5163 5163 5163 5164 5164 5165 5165 5166 5166 5167 5167 5168 5168 5169 5170 5171 5171 5172 5173 5173 5174 5175 5175 5176 5176 5177 5177 5177 5177 5178 5178 5178 5179 5180 5181 5182 5183 5185 5186 5187 5189 5190 5192 5193 5195 5197 5199 5201 5203 5205 5206 5208 5209 5210 5212 5213 5215 5216 5217 5217
5203 5198 5194 5190 5187 5185 5183 5180 5178 5175 5173 5171 5169 5167 5165 5164 5163 5162 5161 5160 5160 5159 5159 5158 5158 5158 5159 5159 5160 5160 5160 5161 5161 5162 5162 5163 5164 5164 5165 5166 5166 5167 5168 5168 5169 5170 5171 5171 5172 5172 5173 5173 5173 5174 5174 5174 5175 5176 5176 5177 5178 5179 5181 5182 5184 5185 5186 5188 5189 5191 5193 5195 5197 5199 5200 5202 5204 5205 5206 5208 5209 5210 5212 5213 5214
5195 5191 5187 5184 5181 5178 5176 5174 5171 5169 5167 5165 5163 5162 5160 5159 5158 5157 5156 5155 5154 5154 5153 5153 5153 5154 5154 5155 5155 5155 5156 5156 5157 5157 5158 5159 5159 5160 5161 5161 5162 5163 5163 5164 5165 5165 5166 5167 5168 5168 5169 5169 5170 5170 5170 5171 5171 5172 5173 5173 5174 5175 5177 5178 5180 5181 5182 5184 5185 5187 5189 5191 5192 5194 5196 5197 5199 5201 5202 5203 5205 5206 5207 5209 5210
5188 5184 5180 5177 5174 5171 5169 5167 5165 5163 5161 5159 5158 5156 5155 5153 5152 5151 5151 5150 5149 5149 5148 5148 5148 5149 5149 5149 5150 5150 5151 5152 5152 5153 5153 5154 5155 5155 5156 5157 5158 5159 5159 5160 5161 5161 5162 5163 5163 5164 5165 5165 5166 5166 5167 5167 5168 5168 5169 5170 5171 5171 5173 5174 5175 5177 5178 5180 5181 5183 5185 5186 5188 5189 5191 5193 5194 5196 5197 5199 5200 5202 5203 5204 5205
5183 5178 5173 5169 5167 5164 5162 5160 5158 5156 5155 5154 5152 5150 5149 5148 5147 5146 5145 5145 5144 5143 5143 5143 5143 5143 5144 5144 5145 5145 5146 5147 5147 5148 5149 5149 5150 5151 5152 5152 5153 5154 5155 5156 5156 5157 5158 5159 5159 5160 5161 5161 5162 5163 5163 5164 5164 5165 5165 5166 5167 5168 5169 5170 5171 5172 5174 5175 5177 5179 5180 5182 5183 5185 5186 5188 5190 5191 5193 5194 5196 5197 5198 5200 5201
5177 5172 5167 5163 5160 5157 5155 5153 5152 5150 5148 5147 5146 5145 5143 5142 5141 5140 5140 5139 5139 5138 5138 5138 5138 5138 5138 5139 5140 5141 5141 5142 5143 5143 5144 5145 5145 5146 5147 5148 5149 5150 5150 5151 5152 5153 5154 5154 5155 5156 5157 5157 5158 5159 5160 5160 5161 5161 5162 5162 5163 5164 5165 5166 5167 5168 5169 5171 5172 5174 5175 5177 5178 5180 5181 5183 5185 5186 5188 5189 5191 5192 5194 5195 5196
5170 5165 5161 5157 5153 5150 5148 5146 5145 5143 5142 5141 5140 5139 5137 5136 5135 5135 5134 5134 5133 5133 5133 5133 5133 5133 5133 5134 5135 5136 5136 5137 5138 5138 5139 5140 5140 5141 5142 5143 5144 5145 5146 5147 5147 5148 5149 5150 5151 5152 5152 5153 5154 5155 5155 5156 5157 5158 5158 5159 5160 5160 5161 5161 5162 5164 5165 5166 5168 5169 5171 5172 5173 5175 5176 5178 5180 5181 5183 5184 5186 5187 5189 5191 5192
5162 5158 5154 5150 5146 5143 5141 5139 5138 5136 5135 5134 5133 5132 5131 5130 5129 5129 5128 5128 5128 5127 5127 5127 5128 5128 5128 5129 5129 5130 5131 5132 5133 5133 5134 5135 5135 5136 5137 5138 5139 5140 5141 5142 5143 5144 5144 5145 5146 5147 5148 5149 5150 5151 5151 5152 5153 5154 5155 5155 5156 5157 5157 5158 5158 5159 5160 5162 5163 5164 5166 5167 5168 5170 5171 5173 5174 5176 5177 5179 5181 5182 5184 5186 5187
5154 5150 5146 5142 5139 5136 5134 5132 5130 5129 5128 5127 5126 5125 5124 5124 5123 5122 5122 5122 5122 5122 5122 5122 5122 5122 5123 5123 5124 5125 5126 5126 5127 5128 5129 5130 5130 5131 5132 5133 5134 5135 5136 5137 5138 5139 5140 5141 5142 5142 5143 5144 5145 5146 5147 5148 5149 5150 5151 5151 5152 5153 5154 5154 5155 5156 5156 5157 5158 5160 5161 5162 5163 5165 5166 5167 5169 5170 5172 5174 5175 5177 5179 5180 5182
5146 5142 5138 5135 5132 5129 5126 5124 5123 5122 5121 5120 5119 5118 5118 5117 5116 5116 5115 5115 5115 5116 5116 5115 5115 5116 5117 5118 5118 5119 5120 5121 5122 5123 5124 5124 5125 5126 5127 5128 5129 5129 5130 5132 5133 5134 5135 5136 5137 5138 5139 5140 5141 5142 5142 5143 5144 5145 5146 5147 5148 5149 5150 5151 5151 5152 5153 5153 5154 5155 5156 5158 5159 5160 5161 5162 5164 5165 5166 5168 5170 5171 5173 5175 5176
5139 5134 5130 5127 5124 5121 5119 5117 5115 5114 5113 5112 5111 5111 5110 5110 5109 5109 5109 5108 5108 5109 5109 5109 5109 5109 5110 5111 5112 5113 5114 5115 5116 5117 5118 5119 5120 5121 5122 5122 5123 5124 5125 5126 5127 5128 5129 5130 5132 5133 5134 5134 5136 5137 5138 5139 5140 5141 5142 5143 5144 5145 5146 5147 5147 5148 5149 5150 5150 5151 5152 5153 5154 5155 5156 5158 5159 5160 5161 5163 5164 5166 5167 5169 5171
5132 5127 5123 5119 5116 5113 5111 5109 5107 5106 5105 5104 5104 5103 5103 5102 5102 5102 5101 5101 5101 5101 5102 5102 5103 5103 5104 5105 5106 5107 5108 5109 5110 5111 5112 5113 5114 5115 5116 5117 5118 5119 5120 5121 5122 5123 5124 5125 5126 5127 5128 5129 5130 5132 5133 5134 5135 5136 5137 5138 5139 5140 5141 5142 5143 5144 5145 5145 5146 5147 5148 5149 5150 5151 5152 5153 5154 5155 5156 5158 5159 5160 5162 5163 5165
5124 5120 5116 5112 5108 5105 5103 5101 5099 5098 5097 5096 5096 5095 5095 5095 5094 5094 5094 5094 5094 5094 5094 5095 5096 5096 5097 5098 5099 5100 5101 5102 5103 5104 5105 5107 5108 5109 5110 5111 5112 5113 5114 5115 5116 5117 5118 5120 5121 5122 5123 5124 5125 5126 5127 5129 5130 5131 5132 5133 5134 5135 5136 5137 5138 5139 5140 5141 5142 5143 5144 5145 5145 5146 5147 5148 5149 5150 5151 5153 5154 5155 5157 5158 5159
5116 5112 5108 5104 5101 5098 5096 5093 5092 5090 5089 5088 5088 5088 5087 5087 5087 5087 5087 5086 5086 5086 5087 5087 5088 5089 5090 5091 5091 5093 5094 5095 5097 5098 5099 5100 5101 5103 5104 5105 5106 5107 5108 5109 5110 5112 5113 5114 5115 5116 5117 5119 5120 5121 5122 5123 5124 5126 5127 5128 5129 5130 5131 5132 5133 5134 5136 5137 5138 5138 5139 5140 5141 5142 5143 5144 5145 5146 5147 5148 5149 5150 5151 5153 5154
5109 5105 5101 5097 5094 5091 5089 5086 5084 5083 5082 5081 5080 5080 5080 5080 5080 5080 5079 5079 5079 5079 5079 5080 5080 5081 5082 5083 5084 5085 5087 5088 5090 5091 5092 5094 5095 5096 5097 5099 5100 5101 5102 5103 5105 5106 5107 5108 5109 5111 5112 5113 5114 5115 5117 5118 5119 5120 5121 5123 5124 5125 5126 5127 5128 5129 5131 5132 5133 5134 5135 5136 5136 5137 5138 5139 5140 5141 5142 5143 5144 5145 5146 5147 5149
5103 5099 5095 5091 5088 5085 5082 5080 5078 5076 5075 5074 5073 5072 5072 5073 5073 5073 5073 5073 5073 5073 5073 5073 5073 5074 5075 5076 5077 5078 5080 5081 5082 5084 5085 5087 5088 5090 5091 5092 5094 5095 5096 5097 5099 5100 5101 5102 5104 5105 5106 5107 5109 5110 5111 5112 5114 5115 5116 5117 5119 5120 5121 5122 5123 5124 5125 5127 5128 5129 5130 5131 5132 5133 5134 5135 5135 5136 5137 5138 5139 5140 5141 5142 5143
5097 5093 5089 5085 5082 5079 5076 5074 5071 5069 5068 5067 5066 5065 5065 5065 5065 5066 5066 5067 5067 5067 5067 5067 5067 5067 5068 5069 5070 5071 5072 5074 5075 5076 5078 5079 5081 5083 5084 5086 5087 5088 5090 5091 5092 5094 5095 5097 5098 5099 5100 5102 5103 5104 5106 5107 5108 5109 5111 5112 5113 5114 5116 5117 5118 5119 5120 5121 5122 5124 5125 5126 5127 5128 5129 5130 5131 5132 5132 5133 5134 5135 5136 5137 5138